When you browse on this site, cookies collect data to enhance your experience and personalize the content and advertising you see.
Visit our Privacy Policy to learn more. By continuing to use the site, you agree to this use of cookies and data.
  • In Hungary
  • List of Countries
  • For 7 days
  • Water Temperature
  • Weather Map
  • News
  • Weather Widgets
  • user-avatar
    Login

    Hourly Weather Novoe Kurovo

    Today, 21 January, Tuesday

    Time Temperature Precipitation Wind Pressure Humidity
    00:00 -1°C° 0 mm 5 mps 745 mmHg 84%
    01:00 -1°C° 0 mm 5 mps 744 mmHg 85%
    02:00 -1°C° 0 mm 5 mps 743 mmHg 86%
    03:00 -2°C° 0.5 mm 6 mps 742 mmHg 88%
    04:00 -1°C° 0.5 mm 6 mps 741 mmHg 90%
    05:00 -1°C° 0.5 mm 6 mps 740 mmHg 92%
    06:00 +1°C° 0.2 mm 6 mps 739 mmHg 90%
    07:00 +1°C° 0.2 mm 6 mps 738 mmHg 88%
    08:00 +1°C° 0 mm 6 mps 738 mmHg 84%
    09:00 +1°C° 0.6 mm 5 mps 737 mmHg 86%
    10:00 +2°C° 0.6 mm 5 mps 737 mmHg 88%
    11:00 +2°C° 0.6 mm 5 mps 736 mmHg 90%
    12:00 +2°C° 0.2 mm 5 mps 736 mmHg 90%
    13:00 +2°C° 0.2 mm 5 mps 735 mmHg 90%
    14:00 +3°C° 0.2 mm 5 mps 734 mmHg 90%
    15:00 +3°C° 0.6 mm 5 mps 734 mmHg 91%
    16:00 +2°C° 0.6 mm 6 mps 733 mmHg 91%
    17:00 +2°C° 0.6 mm 6 mps 732 mmHg 92%
    18:00 +2°C° 0.2 mm 6 mps 733 mmHg 87%
    19:00 +1°C° 0.2 mm 6 mps 733 mmHg 82%
    20:00 -1°C° 0.2 mm 7 mps 733 mmHg 77%
    21:00 -1°C° 0 mm 6 mps 734 mmHg 76%
    22:00 -2°C° 0 mm 6 mps 734 mmHg 75%
    23:00 -3°C° 0 mm 6 mps 734 mmHg 74%

    Tomorrow, 22 January, Wednesday

    Time Temperature Precipitation Wind Pressure Humidity
    00:00 -3°C° 0 mm 6 mps 734 mmHg 76%
    01:00 -3°C° 0 mm 6 mps 734 mmHg 78%
    02:00 -2°C° 0 mm 5 mps 734 mmHg 80%
    03:00 -4°C° 0 mm 5 mps 733 mmHg 82%
    04:00 -4°C° 0 mm 5 mps 732 mmHg 84%
    05:00 -4°C° 0 mm 5 mps 731 mmHg 86%
    06:00 -4°C° 0.2 mm 5 mps 730 mmHg 85%
    07:00 -4°C° 0.2 mm 5 mps 730 mmHg 84%
    08:00 -4°C° 0.2 mm 5 mps 730 mmHg 83%
    09:00 -4°C° 0.1 mm 5 mps 730 mmHg 79%
    10:00 -2°C° 0.1 mm 5 mps 729 mmHg 76%
    11:00 -2°C° 0.1 mm 5 mps 729 mmHg 72%
    12:00 -4°C° 0 mm 5 mps 729 mmHg 72%
    13:00 -4°C° 0 mm 5 mps 730 mmHg 71%
    14:00 -4°C° 0 mm 5 mps 730 mmHg 71%
    15:00 -4°C° 0 mm 5 mps 730 mmHg 73%
    16:00 -5°C° 0 mm 5 mps 731 mmHg 75%
    17:00 -5°C° 0 mm 5 mps 731 mmHg 77%
    18:00 -5°C° 0 mm 5 mps 732 mmHg 79%
    19:00 -5°C° 0 mm 5 mps 732 mmHg 81%
    20:00 -5°C° 0 mm 6 mps 733 mmHg 84%
    21:00 -6°C° 0.1 mm 6 mps 733 mmHg 82%
    22:00 -6°C° 0.1 mm 5 mps 733 mmHg 81%
    23:00 -7°C° 0.1 mm 5 mps 734 mmHg 79%

    Day after tomorrow, 23 January, Thursday

    Time Temperature Precipitation Wind Pressure Humidity
    00:00 -8°C° 0 mm 6 mps 735 mmHg 76%
    01:00 -9°C° 0 mm 6 mps 735 mmHg 74%
    02:00 -9°C° 0 mm 6 mps 736 mmHg 71%
    03:00 -9°C° 0 mm 6 mps 737 mmHg 70%
    04:00 -10°C° 0 mm 6 mps 737 mmHg 70%
    05:00 -10°C° 0 mm 6 mps 737 mmHg 69%
    06:00 -10°C° 0 mm 6 mps 738 mmHg 68%
    07:00 -10°C° 0 mm 5 mps 738 mmHg 66%
    08:00 -9°C° 0 mm 4 mps 739 mmHg 65%
    09:00 -8°C° 0.1 mm 5 mps 739 mmHg 67%
    10:00 -8°C° 0.1 mm 5 mps 739 mmHg 69%
    11:00 -8°C° 0.1 mm 6 mps 739 mmHg 71%
    12:00 -8°C° 0.1 mm 6 mps 740 mmHg 70%
    13:00 -8°C° 0.1 mm 6 mps 740 mmHg 70%
    14:00 -8°C° 0.1 mm 6 mps 740 mmHg 70%
    15:00 -7°C° 0 mm 5 mps 741 mmHg 68%
    16:00 -8°C° 0 mm 5 mps 741 mmHg 65%
    17:00 -9°C° 0 mm 4 mps 742 mmHg 63%
    18:00 -9°C° 0 mm 4 mps 742 mmHg 65%
    19:00 -8°C° 0 mm 3 mps 742 mmHg 67%
    20:00 -8°C° 0 mm 3 mps 743 mmHg 69%
    21:00 -8°C° 0 mm 3 mps 743 mmHg 69%
    22:00 -8°C° 0 mm 3 mps 743 mmHg 68%
    23:00 -8°C° 0 mm 3 mps 743 mmHg 68%

    24 January, Friday

    Time Temperature Precipitation Wind Pressure Humidity
    00:00 -7°C° 0 mm 2 mps 742 mmHg 71%
    01:00 -6°C° 0 mm 2 mps 742 mmHg 74%
    02:00 -6°C° 0 mm 2 mps 742 mmHg 77%
    03:00 -6°C° 0.1 mm 3 mps 741 mmHg 83%
    04:00 -6°C° 0.1 mm 3 mps 741 mmHg 88%
    05:00 -5°C° 0.1 mm 4 mps 740 mmHg 93%
    06:00 -5°C° 0.3 mm 4 mps 739 mmHg 93%
    07:00 -4°C° 0.3 mm 4 mps 739 mmHg 92%
    08:00 -4°C° 0.3 mm 4 mps 738 mmHg 92%
    09:00 -3°C° 0.1 mm 4 mps 738 mmHg 91%
    10:00 -3°C° 0.1 mm 4 mps 738 mmHg 90%
    11:00 -2°C° 0.1 mm 4 mps 737 mmHg 89%
    12:00 -1°C° 0 mm 4 mps 737 mmHg 88%
    13:00 -1°C° 0 mm 5 mps 737 mmHg 87%
    14:00 0°C° 0 mm 5 mps 737 mmHg 87%
    15:00 0°C° 0 mm 5 mps 737 mmHg 86%
    16:00 -1°C° 0 mm 4 mps 737 mmHg 86%
    17:00 -1°C° 0 mm 4 mps 737 mmHg 86%
    18:00 -1°C° 0 mm 4 mps 737 mmHg 87%
    19:00 -1°C° 0 mm 4 mps 737 mmHg 88%
    20:00 -1°C° 0 mm 4 mps 738 mmHg 89%
    21:00 -1°C° 0 mm 4 mps 738 mmHg 91%
    22:00 -2°C° 0 mm 4 mps 738 mmHg 92%
    23:00 -1°C° 0 mm 3 mps 738 mmHg 93%

    25 January, Saturday

    Time Temperature Precipitation Wind Pressure Humidity
    00:00 -1°C° 0 mm 3 mps 738 mmHg 94%
    01:00 -1°C° 0 mm 3 mps 738 mmHg 95%
    02:00 -1°C° 0 mm 3 mps 738 mmHg 96%
    03:00 -1°C° 0 mm 2 mps 738 mmHg 96%
    04:00 -1°C° 0 mm 2 mps 739 mmHg 95%
    05:00 +1°C° 0 mm 1 mps 739 mmHg 95%
    06:00 -1°C° 0 mm 2 mps 739 mmHg 96%
    07:00 +1°C° 0 mm 2 mps 739 mmHg 97%
    08:00 +1°C° 0 mm 2 mps 739 mmHg 98%
    09:00 +1°C° 0.1 mm 2 mps 739 mmHg 97%
    10:00 +1°C° 0.1 mm 2 mps 739 mmHg 97%
    11:00 +2°C° 0.1 mm 2 mps 739 mmHg 97%
    12:00 +1°C° 0 mm 3 mps 739 mmHg 95%
    13:00 +1°C° 0 mm 3 mps 739 mmHg 93%
    14:00 +1°C° 0 mm 3 mps 739 mmHg 92%
    15:00 +1°C° 0 mm 3 mps 739 mmHg 92%
    16:00 0°C° 0 mm 3 mps 739 mmHg 93%
    17:00 -1°C° 0 mm 3 mps 739 mmHg 93%
    18:00 -1°C° 0 mm 3 mps 739 mmHg 91%
    19:00 -1°C° 0 mm 3 mps 739 mmHg 88%
    20:00 -1°C° 0 mm 3 mps 739 mmHg 86%
    21:00 -1°C° 0 mm 3 mps 740 mmHg 89%
    22:00 -2°C° 0 mm 3 mps 740 mmHg 91%
    23:00 -2°C° 0 mm 3 mps 740 mmHg 94%

    26 January, Sunday

    Time Temperature Precipitation Wind Pressure Humidity
    00:00 -2°C° 0 mm 3 mps 740 mmHg 93%
    01:00 -4°C° 0 mm 3 mps 740 mmHg 93%
    02:00 -4°C° 0 mm 3 mps 740 mmHg 92%
    03:00 -4°C° 0 mm 3 mps 740 mmHg 92%
    04:00 -4°C° 0 mm 3 mps 741 mmHg 91%
    05:00 -4°C° 0 mm 3 mps 741 mmHg 91%
    06:00 -3°C° 0 mm 2 mps 741 mmHg 91%
    07:00 -3°C° 0 mm 2 mps 741 mmHg 91%
    08:00 -3°C° 0 mm 2 mps 741 mmHg 91%
    09:00 -3°C° 0 mm 2 mps 741 mmHg 88%
    10:00 -2°C° 0 mm 2 mps 741 mmHg 85%
    11:00 -1°C° 0 mm 2 mps 742 mmHg 82%
    12:00 -1°C° 0 mm 2 mps 741 mmHg 84%
    13:00 -1°C° 0 mm 2 mps 741 mmHg 87%
    14:00 -1°C° 0 mm 3 mps 741 mmHg 90%
    15:00 -1°C° 0 mm 2 mps 741 mmHg 92%
    16:00 -1°C° 0 mm 2 mps 741 mmHg 94%
    17:00 -1°C° 0 mm 2 mps 741 mmHg 97%
    18:00 -1°C° 0.1 mm 2 mps 741 mmHg 96%
    19:00 -1°C° 0.1 mm 2 mps 741 mmHg 96%
    20:00 +1°C° 0.1 mm 2 mps 741 mmHg 96%
    21:00 -1°C° 0 mm 2 mps 741 mmHg 95%
    22:00 -1°C° 0 mm 2 mps 741 mmHg 95%
    23:00 -1°C° 0 mm 2 mps 741 mmHg 94%
    Show more